Temperature
16 16 16 16 15 15 15 15 15 15 15 14 14 14 14 14 14 14 14 13 13 13 13 13 13 13 13 13 13 12 12 12 12 11 11 11 11 11 11 11 10 10 10
16 16 16 16 15 15 15 15 15 15 15 14 14 14 14 14 14 13 13 13 13 13 13 13 13 13 12 12 12 12 12 12 12 11 11 11 11 10 10 10 10 10 10
16 16 16 16 15 15 15 15 15 15 14 14 14 14 14 14 13 13 13 13 13 13 13 13 12 12 12 12 12 12 12 11 11 11 11 10 10 10 10 10 10 10 10
16 16 16 16 16 15 15 15 15 14 14 14 14 14 14 13 13 13 13 13 13 13 12 12 12 12 12 12 12 11 11 11 11 11 10 10 10 10 10 10 10 9 9
16 16 16 16 15 15 15 15 15 14 14 14 14 14 13 13 13 13 13 13 13 12 12 12 12 12 12 11 11 11 11 11 11 10 10 10 10 10 9 9 9 9 9
16 16 16 15 15 15 15 15 14 14 14 14 14 14 13 13 13 13 13 12 12 12 12 12 12 11 11 11 11 11 10 10 10 10 10 10 9 9 9 9 8 8 8
16 16 16 15 15 15 15 14 14 14 14 14 14 13 13 13 13 12 12 12 12 12 12 12 12 11 11 11 11 10 10 10 10 10 9 9 9 9 8 8 8 8 8
16 16 15 15 15 15 14 14 14 14 14 14 13 13 13 13 12 12 12 12 12 12 11 11 11 11 11 11 10 10 10 10 10 9 9 9 8 8 8 8 7 7 7
16 16 15 15 15 15 14 14 14 14 14 13 13 13 13 13 12 12 12 12 11 11 11 11 11 11 11 10 10 10 10 10 9 9 9 9 8 8 8 7 7 7 7
16 16 15 15 15 15 14 14 14 14 13 13 13 13 13 12 12 12 12 11 11 11 11 11 11 10 10 10 10 10 9 9 9 9 8 8 8 8 7 7 7 6 6
16 16 15 15 15 14 14 14 14 13 13 13 13 13 12 12 12 12 12 11 11 11 11 11 10 10 10 10 9 9 9 9 8 8 8 8 7 7 7 7 6 6 6
15 15 15 15 14 14 14 13 13 13 13 13 12 12 12 12 12 12 11 11 11 11 11 11 10 10 10 9 9 9 8 8 8 8 8 7 7 7 6 6 6 6 5
15 15 15 14 14 14 14 13 13 13 12 12 12 12 12 12 12 11 11 11 11 10 10 10 10 9 9 9 9 8 8 8 7 7 7 7 7 6 6 6 5 5 5
15 15 14 14 14 14 13 13 13 13 12 12 12 12 12 12 12 11 11 11 10 10 10 10 9 9 9 8 8 8 8 7 7 7 6 6 6 6 5 5 5 5 5
15 14 14 14 14 13 13 13 13 13 12 12 12 12 12 12 11 11 11 11 10 10 10 9 9 9 9 8 8 8 7 7 7 6 6 6 5 5 5 5 4 4 4
14 14 14 14 13 13 13 13 12 12 12 12 12 12 11 11 11 11 10 10 10 9 9 9 9 8 8 8 8 7 7 7 6 6 5 5 5 5 4 4 4 3 3
14 14 14 14 13 13 13 13 12 12 12 12 11 11 11 11 11 10 10 10 9 9 9 9 8 8 8 7 7 7 6 6 6 5 5 5 4 4 4 3 3 3 3
14 14 14 13 13 13 13 12 12 12 12 12 11 11 11 10 10 10 10 9 9 9 8 8 8 8 7 7 7 7 6 6 5 5 5 4 4 4 3 3 3 2 2
14 13 13 13 13 13 12 12 12 12 11 11 11 11 10 10 10 9 9 9 9 9 8 8 8 7 7 7 6 6 6 5 5 5 4 4 4 3 3 3 2 2 2
13 13 13 13 12 12 12 12 11 11 11 11 11 10 10 10 10 9 9 9 9 8 8 8 7 7 7 6 6 6 5 5 4 4 4 4 3 3 3 2 2 2 1
13 13 13 12 12 12 12 11 11 11 11 11 10 10 10 9 9 9 9 8 8 8 8 7 7 7 6 6 6 5 5 5 4 4 3 3 3 2 2 2 2 1 1
13 12 12 12 12 12 11 11 11 11 10 10 10 9 9 9 9 8 8 8 8 7 7 7 7 6 6 6 5 5 5 4 4 3 3 3 2 2 2 1 1 1 0
12 12 12 11 11 11 11 11 10 10 10 10 9 9 9 9 8 8 8 7 7 7 7 6 6 6 6 5 5 5 4 4 3 3 3 2 2 2 1 1 1 0 -0
12 11 11 11 11 10 10 10 10 10 9 9 9 9 8 8 8 8 7 7 7 7 6 6 6 6 5 5 5 4 4 4 3 3 2 2 2 1 1 1 0 0 -0
11 11 11 11 10 10 10 10 9 9 9 9 8 8 8 8 7 7 7 7 6 6 6 6 6 5 5 5 5 4 4 3 3 2 2 2 1 1 1 1 0 -0 -1
11 11 10 10 10 10 10 9 9 9 8 8 8 8 7 7 7 7 6 6 6 6 6 5 5 5 5 4 4 4 3 3 3 2 2 2 1 1 0 0 -0 -1 -1
Wind_Speed
6 5 6 5 5 5 5 5 4 4 4 4 4 4 4 4 4 5 4 4 5 4 3 4 3 3 3 3 3 3 3 3 3 1 2 3 4 5 8 9 9 10 11
7 6 6 5 5 5 5 4 4 5 4 4 5 5 4 4 4 5 4 4 4 3 3 4 3 3 4 3 3 3 3 2 3 1 2 3 3 4 5 6 7 8 9
7 7 6 6 6 6 5 5 5 5 4 4 5 5 4 4 4 4 5 4 3 3 3 3 2 4 3 3 3 3 2 3 3 2 1 1 2 3 3 4 6 6 7
7 7 7 7 7 6 5 5 5 5 5 5 4 4 5 5 4 4 5 4 4 3 2 2 2 3 3 3 3 3 3 4 3 3 1 1 2 2 2 3 4 4 4
8 7 7 6 5 5 5 5 5 5 5 5 5 4 4 4 4 5 5 5 4 3 3 2 2 4 4 4 3 3 4 3 3 2 1 1 2 2 2 1 2 3 3
9 8 6 6 6 6 5 5 5 5 5 5 5 5 4 3 6 8 7 5 4 4 3 2 3 3 4 5 5 5 5 4 3 2 1 0 2 2 1 1 1 2 3
8 8 7 7 7 6 6 6 6 5 5 5 5 5 4 4 7 8 8 5 4 4 3 2 2 3 4 4 4 5 4 3 3 3 2 2 2 3 1 1 1 1 2
8 8 8 8 7 6 6 6 5 5 5 4 4 4 4 4 7 8 8 6 4 3 3 3 3 2 3 4 4 3 2 2 2 2 2 2 2 2 2 2 2 2 2
8 9 9 9 9 8 7 6 5 5 5 4 4 5 5 4 6 8 8 5 4 3 2 3 3 3 4 5 4 3 1 1 2 1 1 1 2 2 1 2 1 1 3
10 9 9 9 9 9 8 6 4 5 5 5 4 4 5 4 6 8 8 4 3 2 1 2 3 4 4 5 4 4 2 1 1 2 3 3 4 3 2 1 1 1 1
8 8 8 8 9 8 7 5 6 5 5 4 4 2 3 3 5 7 8 5 5 4 2 2 2 4 5 5 4 3 3 2 1 1 1 2 3 3 3 2 1 2 2
8 9 8 8 8 8 8 7 6 7 6 4 3 2 1 1 3 5 7 7 6 4 3 3 2 5 5 4 3 3 2 2 1 1 1 1 2 2 3 3 3 3 4
9 9 8 7 6 7 8 8 7 6 5 4 4 3 2 1 2 5 6 6 7 4 3 4 4 4 3 2 2 2 2 1 1 0 1 2 3 3 2 3 4 4 5
9 8 7 8 6 6 6 6 7 6 6 5 5 4 3 2 2 2 2 3 5 3 2 3 4 3 2 1 1 1 1 1 2 2 2 2 2 2 2 2 2 3 3
8 7 7 7 7 6 5 4 6 6 8 8 6 6 6 5 6 8 6 4 4 4 4 2 2 1 1 0 0 0 0 0 1 1 2 2 2 2 2 2 2 2 3
8 7 6 6 6 6 5 3 1 3 6 7 7 7 5 6 7 9 9 8 8 8 5 2 2 2 2 2 2 2 1 2 2 2 2 2 2 2 3 3 2 3 4
9 8 6 6 6 6 6 6 4 1 2 4 6 7 7 6 7 8 8 7 7 8 4 3 3 3 3 3 3 3 3 3 2 2 2 2 2 3 3 3 3 4 5
8 8 8 7 6 6 6 6 5 5 3 1 2 5 6 6 7 7 8 6 3 4 3 4 4 4 4 4 3 3 3 2 2 2 2 3 3 3 3 4 4 4 5
7 6 6 6 6 6 5 5 5 5 4 3 1 1 4 5 5 6 8 4 5 4 4 4 4 4 4 4 4 3 3 3 3 3 3 3 3 3 4 4 4 6 5
6 9 8 6 6 5 5 5 5 5 5 4 4 3 3 3 3 3 4 4 4 4 5 5 4 4 4 4 4 4 3 3 3 3 3 3 3 3 4 5 5 5 5
6 7 9 7 6 6 6 6 6 5 5 5 4 5 7 4 5 5 4 4 5 5 5 4 4 4 4 4 4 4 5 4 4 4 4 4 3 3 4 4 5 5 5
6 6 6 6 6 5 5 5 5 5 5 5 3 3 6 4 4 4 4 4 4 5 5 5 4 5 5 5 5 5 5 4 4 4 4 4 3 4 4 4 4 4 5
6 6 6 5 5 6 6 5 5 5 5 5 4 4 4 4 4 4 4 4 4 4 5 5 5 5 5 6 7 6 6 6 6 6 4 4 4 4 4 4 5 5 5
6 7 7 6 5 5 6 5 5 5 5 5 4 4 4 4 4 4 4 3 3 4 5 5 5 6 6 6 6 7 8 8 8 7 7 5 4 4 4 4 5 5 6
6 6 6 6 6 6 6 5 5 5 5 5 5 4 4 4 4 4 3 3 4 4 4 5 5 5 6 7 7 7 8 9 8 7 6 5 5 4 4 5 5 5 6
5 6 5 5 5 5 6 6 5 5 5 5 4 4 4 4 4 4 3 3 3 4 4 5 5 6 7 7 7 8 8 8 8 7 5 4 4 4 4 4 5 5 6
Wind_Direction
171 165 158 164 159 152 155 160 157 144 137 135 132 124 116 108 103 102 96 90 86 72 68 82 74 69 72 64 70 77 78 103 127 330 340 344 11 17 17 28 31 31 29
170 162 161 158 153 153 160 164 152 147 141 136 130 127 126 119 115 117 117 107 106 100 87 84 74 82 76 69 79 81 81 89 127 123 348 354 2 1 8 15 18 22 22
162 159 157 159 161 165 168 163 154 150 143 133 134 136 135 133 127 125 122 115 113 113 109 111 108 100 89 79 81 82 76 77 86 116 19 351 352 1 7 7 11 8 12
159 159 165 172 173 169 162 155 155 154 151 147 143 140 138 134 133 130 125 120 115 104 98 109 114 123 126 116 99 96 96 87 83 87 53 360 344 336 12 2 357 356 359
163 166 175 168 159 153 151 149 147 149 153 147 138 133 132 137 147 146 141 137 131 112 85 82 102 114 118 119 118 126 118 108 99 89 58 19 347 346 336 323 336 332 338
169 173 166 155 152 152 152 148 144 144 141 138 141 144 149 159 157 157 150 140 135 130 118 85 77 77 88 99 108 117 127 131 140 132 126 234 282 271 289 318 325 351 333
168 165 162 161 157 157 154 147 152 152 143 141 147 148 155 163 159 156 155 141 139 140 138 125 109 97 91 90 86 83 82 109 142 157 169 226 238 238 225 305 285 265 275
165 163 163 162 158 152 149 154 154 146 148 151 153 156 154 168 162 153 148 138 134 137 147 153 146 139 126 123 110 85 66 59 88 127 184 226 228 214 200 215 231 272 287
170 171 170 164 157 155 160 161 154 149 152 155 156 160 163 177 169 159 146 138 139 152 165 153 158 168 154 135 122 115 60 345 44 89 88 11 338 341 64 80 27 4 323
182 177 169 164 162 166 168 161 153 153 157 149 149 163 168 178 173 166 155 147 152 166 168 170 176 178 169 152 148 151 166 263 8 38 30 16 14 11 14 89 200 239 291
172 161 158 162 164 164 158 153 148 147 139 139 143 152 171 182 181 175 170 167 174 174 181 202 209 186 177 169 160 171 192 184 132 86 354 347 1 6 1 349 285 197 235
154 154 157 159 162 159 152 154 150 145 141 143 142 142 182 195 179 181 179 178 172 170 188 200 190 170 172 170 160 161 164 126 105 82 4 323 317 310 317 328 316 289 261
151 156 158 157 159 156 158 158 152 153 156 162 164 178 200 198 190 184 179 176 168 167 181 171 161 155 153 156 160 154 134 123 133 159 268 272 272 281 312 329 332 324 311
155 158 155 155 155 154 157 161 163 168 169 173 179 190 194 185 193 189 178 171 167 164 161 150 143 127 118 127 125 114 139 182 186 220 252 270 295 315 314 315 318 323 319
155 156 154 155 158 158 159 170 175 187 186 185 194 188 183 201 212 188 174 178 177 173 147 115 100 108 127 255 281 266 240 194 244 250 250 276 296 305 307 311 310 318 308
154 160 159 159 159 159 156 141 142 175 182 186 184 179 194 199 185 181 182 180 172 160 141 153 183 196 207 220 234 251 242 238 244 250 257 265 278 292 304 315 312 300 298
163 165 163 164 164 166 167 168 168 140 150 183 190 188 188 184 179 177 178 173 167 157 156 186 203 211 217 220 225 230 239 242 234 236 250 263 274 287 297 302 304 304 301
163 165 167 172 171 172 176 178 175 172 175 205 214 198 192 186 180 176 166 146 158 168 185 199 213 218 219 223 227 229 237 241 236 243 254 262 264 274 285 289 290 295 298
164 168 170 169 168 169 167 166 169 175 179 179 164 196 185 179 176 177 161 165 187 201 206 211 216 217 220 224 228 229 229 232 240 242 250 257 258 262 273 279 284 293 299
171 173 167 165 164 163 162 166 173 179 182 186 195 198 167 146 166 184 188 192 199 207 209 215 221 221 221 223 224 222 225 231 237 244 251 254 257 260 269 276 282 288 289
168 173 169 165 171 172 171 177 181 183 189 196 207 198 180 182 196 200 202 206 210 214 215 216 220 224 225 223 218 220 223 232 235 241 249 253 256 263 269 272 279 282 289
165 167 171 174 173 173 174 178 179 183 189 192 198 193 190 188 196 204 213 220 218 217 214 213 220 225 222 219 215 217 224 234 241 241 246 251 256 262 270 276 281 288 293
163 164 166 168 170 170 170 172 179 184 188 190 187 186 192 201 207 211 218 221 218 218 215 213 222 232 232 229 224 220 223 232 238 237 237 246 253 259 267 274 281 289 292
166 168 170 171 169 171 175 180 184 189 189 188 188 192 199 204 209 215 218 218 216 218 215 215 222 229 231 233 233 233 236 242 243 239 237 240 249 256 262 271 277 284 287
165 167 170 173 175 178 180 181 183 187 191 191 192 195 198 201 208 215 219 216 216 222 224 222 225 227 230 234 238 240 244 249 250 247 243 239 243 252 262 270 276 284 287
165 168 170 171 174 177 178 182 186 189 195 197 197 199 198 200 207 215 218 215 220 228 231 229 227 228 232 236 241 245 249 251 249 248 244 241 245 254 262 267 273 278 284
Height
1551 1553 1555 1557 1559 1561 1562 1564 1565 1566 1567 1568 1569 1569 1569 1570 1570 1570 1570 1570 1570 1571 1571 1571 1571 1571 1571 1571 1570 1570 1570 1570 1569 1569 1569 1568 1567 1565 1564 1562 1561 1559 1558
1549 1552 1554 1556 1558 1560 1561 1563 1564 1565 1566 1567 1568 1568 1569 1569 1570 1570 1570 1570 1570 1571 1571 1571 1571 1571 1571 1571 1571 1570 1570 1570 1569 1568 1568 1567 1566 1565 1563 1562 1560 1559 1557
1547 1549 1552 1554 1556 1558 1560 1561 1563 1564 1565 1566 1567 1568 1568 1569 1569 1569 1570 1570 1570 1570 1571 1571 1571 1571 1571 1571 1570 1570 1570 1569 1569 1568 1567 1567 1566 1564 1563 1562 1560 1558 1556
1545 1547 1550 1552 1554 1556 1558 1560 1561 1563 1564 1565 1566 1566 1567 1568 1568 1569 1569 1569 1569 1570 1570 1570 1571 1570 1570 1570 1570 1569 1569 1569 1568 1567 1567 1566 1565 1563 1562 1560 1559 1557 1555
1542 1545 1548 1550 1553 1555 1556 1558 1560 1561 1562 1563 1564 1565 1566 1567 1568 1568 1569 1569 1569 1569 1569 1570 1570 1570 1570 1569 1569 1569 1568 1568 1567 1566 1565 1565 1564 1562 1561 1559 1557 1556 1554
1539 1542 1545 1548 1550 1552 1554 1556 1558 1559 1561 1562 1563 1564 1565 1566 1567 1567 1568 1568 1568 1568 1569 1569 1569 1569 1569 1568 1568 1568 1568 1567 1566 1565 1564 1563 1562 1561 1560 1558 1556 1554 1552
1537 1540 1543 1546 1548 1550 1552 1554 1556 1558 1559 1560 1562 1563 1564 1565 1565 1566 1566 1567 1567 1567 1567 1568 1568 1568 1567 1567 1567 1566 1566 1565 1565 1564 1563 1562 1561 1560 1558 1557 1555 1553 1550
1534 1537 1540 1543 1545 1548 1550 1552 1554 1556 1557 1559 1560 1562 1563 1563 1564 1565 1565 1565 1565 1566 1566 1566 1566 1566 1566 1566 1565 1565 1564 1564 1563 1562 1561 1560 1559 1558 1556 1555 1553 1551 1549
1531 1534 1537 1540 1543 1545 1547 1549 1552 1553 1555 1557 1558 1560 1561 1562 1563 1563 1564 1564 1564 1564 1564 1565 1565 1564 1564 1564 1564 1563 1563 1562 1561 1560 1559 1558 1557 1556 1554 1553 1550 1548 1545
1528 1531 1535 1537 1540 1542 1545 1547 1549 1551 1553 1555 1557 1558 1559 1560 1561 1561 1562 1562 1562 1562 1563 1563 1563 1563 1563 1562 1562 1561 1560 1560 1559 1558 1557 1556 1555 1553 1552 1550 1548 1545 1542
1525 1529 1532 1535 1537 1540 1543 1545 1547 1549 1551 1553 1555 1556 1557 1558 1559 1559 1560 1560 1560 1561 1561 1561 1561 1561 1560 1560 1559 1559 1558 1557 1556 1555 1554 1553 1552 1551 1549 1547 1545 1543 1540
1523 1526 1529 1532 1535 1537 1539 1542 1544 1547 1549 1550 1552 1554 1555 1556 1556 1557 1558 1558 1558 1558 1558 1559 1559 1558 1558 1558 1557 1556 1556 1555 1554 1552 1551 1550 1549 1547 1546 1544 1542 1540 1538
1520 1523 1526 1529 1532 1534 1536 1539 1541 1543 1546 1547 1549 1550 1552 1553 1554 1554 1555 1555 1556 1556 1556 1556 1556 1556 1556 1555 1554 1553 1553 1552 1550 1549 1548 1547 1546 1544 1542 1540 1538 1536 1534
1517 1520 1523 1526 1529 1531 1534 1536 1538 1540 1542 1544 1546 1547 1549 1550 1551 1551 1552 1552 1553 1553 1553 1553 1553 1553 1553 1552 1551 1550 1549 1548 1547 1546 1545 1544 1542 1540 1538 1536 1534 1531 1529
1515 1518 1520 1523 1526 1528 1531 1533 1535 1537 1539 1541 1542 1544 1545 1546 1548 1549 1549 1549 1550 1550 1550 1550 1550 1550 1549 1548 1548 1547 1546 1545 1544 1542 1541 1540 1538 1536 1534 1532 1530 1527 1525
1512 1515 1517 1520 1523 1525 1527 1530 1532 1535 1537 1538 1540 1541 1542 1544 1545 1546 1546 1547 1547 1547 1547 1546 1546 1546 1545 1545 1544 1543 1542 1541 1540 1539 1537 1536 1534 1532 1530 1528 1526 1524 1521
1510 1512 1515 1517 1519 1522 1524 1526 1528 1531 1533 1535 1536 1538 1539 1540 1541 1542 1543 1543 1543 1543 1543 1542 1542 1542 1542 1541 1540 1540 1539 1538 1537 1535 1534 1532 1530 1528 1526 1524 1522 1520 1517
1508 1510 1512 1514 1516 1519 1521 1523 1525 1527 1529 1530 1533 1534 1535 1537 1538 1538 1539 1539 1539 1539 1538 1539 1539 1538 1538 1537 1537 1536 1535 1534 1533 1531 1530 1528 1526 1524 1522 1520 1518 1515 1513
1505 1507 1509 1511 1513 1516 1518 1520 1522 1524 1525 1527 1529 1530 1532 1533 1534 1534 1535 1535 1534 1534 1534 1534 1534 1534 1534 1533 1532 1532 1531 1529 1528 1527 1525 1524 1522 1520 1518 1516 1514 1511 1509
1502 1504 1506 1508 1510 1512 1514 1516 1518 1520 1521 1523 1525 1526 1528 1528 1529 1529 1530 1530 1530 1530 1530 1530 1530 1530 1529 1529 1528 1527 1526 1525 1524 1522 1521 1520 1518 1516 1514 1512 1509 1507 1504
1498 1501 1503 1505 1506 1508 1510 1512 1514 1516 1517 1519 1521 1522 1523 1524 1524 1525 1525 1525 1526 1526 1526 1526 1525 1525 1524 1524 1523 1522 1521 1520 1519 1518 1517 1515 1513 1511 1509 1507 1505 1502 1500
1495 1497 1499 1501 1503 1505 1507 1509 1511 1512 1514 1515 1516 1518 1519 1519 1520 1520 1521 1521 1521 1522 1522 1521 1521 1520 1520 1519 1518 1517 1516 1515 1514 1513 1512 1510 1509 1506 1504 1502 1500 1498 1495
1491 1493 1495 1497 1499 1501 1503 1505 1507 1508 1509 1511 1512 1513 1514 1515 1515 1516 1516 1517 1517 1517 1517 1517 1516 1516 1515 1514 1514 1513 1512 1511 1510 1509 1507 1505 1504 1502 1500 1498 1495 1493 1491
1488 1490 1492 1494 1496 1497 1499 1501 1502 1504 1505 1506 1507 1509 1509 1510 1511 1511 1512 1512 1512 1512 1512 1512 1511 1511 1510 1509 1509 1508 1507 1506 1505 1503 1502 1501 1499 1497 1495 1493 1491 1488 1486
1484 1486 1488 1490 1492 1494 1495 1497 1498 1500 1501 1502 1503 1504 1505 1505 1506 1506 1507 1507 1507 1507 1507 1507 1507 1506 1505 1504 1504 1503 1502 1501 1500 1498 1497 1495 1493 1492 1490 1488 1486 1484 1481
1481 1483 1485 1486 1488 1490 1491 1493 1494 1495 1497 1497 1498 1499 1500 1500 1501 1502 1502 1502 1502 1502 1502 1502 1501 1501 1500 1499 1499 1498 1496 1495 1494 1493 1491 1490 1488 1486 1485 1483 1481 1479 1476